Notices

What's New in latest Release from April 7th, 2021:

- Updated Glossary, including Speed of Maximum Gust, and Total Hourly Precipitation

- Updated national and regional climate services offices contacts and prices information

- Addition of station inventory lists for 1981-2010, 1971-2000, and 1961-1990 Normals.

If you haven't already, please take our survey and provide feedback about our website: https://eccc.sondage-survey.ca/f/LanguageSelection.aspx?s=442ca660-fcf1-47c0-95a9-59707d6fd709

Hourly Data Report for January 01, 2006

TORONTO CITY
ONTARIO

43°40'00.000" N
79°24'00.000" W
112.50 m
6158355
71508
XTO

Download Data

Hourly Data (January 2006)
Hourly Data Report for January 1, 2006
TIME
LST
Temp Definition
°C
Dew Point Definition
°C
Rel Hum Definition
%
Precip. Amount Definition
mm

Wind Dir Definition
10's deg

Wind Spd Definition
km/h
Visibility Definition
km
Stn Press Definition
kPa
Hmdx Definition


Wind Chill Definition


Weather Definition


00:00 -4.4 -6.0 89   LegendMM LegendMM   99.60     LegendNANA
01:00 -4.6 -5.9 91   LegendMM LegendMM   99.65     LegendNANA
02:00 -4.5 -5.4 93   LegendMM LegendMM   99.71     LegendNANA
03:00 -4.5 -5.2 95   LegendMM LegendMM   99.76     LegendNANA
04:00 -4.1 -4.7 96   LegendMM LegendMM   99.77     LegendNANA
05:00 -4.1 -4.7 96   LegendMM LegendMM   99.82     LegendNANA
06:00 -3.7 -4.2 96   LegendMM LegendMM   99.88     LegendNANA
07:00 -3.5 -4.0 96   LegendMM LegendMM   99.96     LegendNANA
08:00 -3.3 -3.8 96   LegendMM LegendMM   100.02     LegendNANA
09:00 -2.6 -3.1 96   LegendMM LegendMM   100.11     LegendNANA
10:00 -2.0 -2.5 96   LegendMM LegendMM   100.18     LegendNANA
11:00 -1.0 -1.7 95   LegendMM LegendMM   100.18     LegendNANA
12:00 -0.3 -1.1 94   LegendMM LegendMM   100.18     LegendNANA
13:00 0.0 -1.0 93   LegendMM LegendMM   100.18     LegendNANA
14:00 0.4 -0.5 94   LegendMM LegendMM   100.17     LegendNANA
15:00 0.2 -0.8 93   LegendMM LegendMM   100.27     LegendNANA
16:00 0.3 -0.7 93   LegendMM LegendMM   100.35     LegendNANA
17:00 0.1 -0.5 96   LegendMM LegendMM   100.42     LegendNANA
18:00 0.6 0.1 96   LegendMM LegendMM   100.45     LegendNANA
19:00 1.3 0.8 96   LegendMM LegendMM   100.49     LegendNANA
20:00 1.8 1.3 96   LegendMM LegendMM   100.51     LegendNANA
21:00 1.9 1.4 96   LegendMM LegendMM   100.49     LegendNANA
22:00 1.9 1.3 96   LegendMM LegendMM   100.49     LegendNANA
23:00 1.4 0.8 96   LegendMM LegendMM   100.52     LegendNANA

Notes on Data Quality.

Legend

  • E = Estimated
  • M = Missing
  • NA = Not Available*
  • [empty] = Indicates an unobserved value
Date modified: